sat.trackr.live / text

‹ back to catalog

STARLINK-11487 [DTC]

NORAD 62278 · 2024-237M

PAYLOAD ACTIVE UNKNOWN

§ Identity

Operator
Country
US
Launch date
2024-12-08
Launch site
AFETR
Launch vehicle
Mass (kg)
RCS (m²)

Purposes: comms

External: N2YO · Heavens-Above · Gunter

§ Orbital elements

Epoch: 2026-09-21T10:36:42.217056Z

Period
91.67 min
Inclination
43.0003°
Eccentricity
0.0001211
Mean motion
15.70859209 rev/d
Perigee alt
355.6 km
Apogee alt
357.3 km
Semi-major
6,734.6 km
B*
8.6313e-4
RAAN
317.1594°
Arg perigee
245.8187°
Mean anomaly
114.2554°
Rev number
10,383

§ Raw data

STARLINK-11487 [DTC]1 62278U 24237M   26264.44215529  .00111894  00000+0  86313-3 0  99922 62278  43.0003 317.1594 0001211 245.8187 114.2554 15.70859209103830

JSON: /api/v1/satellites/62278 · /tle

For live sub-satellite position, see the globe view (requires WebGL).

§ Visibility from observer

Set your observer location to see the next 7 days of passes ≥ 10°. The values pass through the URL so the page stays shareable.

No JS? Fill the form by hand. The geolocation button needs JavaScript.